[[{"header":{"parameterUnit":"m.s-1","parameterCategory":1,"la1":30.2991,"la2":30.254,"lo1":-89.0895,"lo2":-89.0444,"dy":0.0017,"dx":0.0017,"nx":28,"ny":28,"refTime":"2025-01-11T03:00:00:Z","depth":0,"parameterNumber":2,"parameterNumberName":"U-component_of_WINDS"},"data":[0,0,0,0,0,0,0,0,0,0,0,0,0,0,0,0,0,0,0,0,0,0,0,0,0,0,0,0,0,0,0,0,0,0,0,0,0,0,0,0,0,0,0,0,0,0,0,0,0,0,0,0,0,0,0,0,0,0,0.5615,0.5615,0,0.5598,0.5598,0.5598,0.5573,0.5573,0.5572,0.5572,0.5554,0.5554,0.5554,0,0,0,0,0,0,0,0,0,0,0,0,0,0.5628,0.5628,0.5615,0.5615,0.5615,0.5598,0.5598,0.5598,0.5573,0.5573,0.5572,0.5572,0.5554,0.5554,0.5554,0,0,0,0,0,0,0,0,0,0,0,0,0,0.5618,0.5628,0.5615,0.5601,0.5599,0.5598,0.5598,0.5598,0.5573,0.5573,0.5572,0.5571,0.5554,0.5554,0.5554,0.5566,0,0,0.5553,0.5553,0,0,0,0,0,0,0,0,0.5618,0.5617,0.5603,0.5602,0.56,0.5587,0.5596,0.5587,0.5573,0.5583,0.5572,0.5571,0.5565,0.5564,0.5562,0.5565,0.5564,0.5553,0.5553,0.5553,0.5553,0,0,0,0,0,0,0,0.5619,0.5618,0.5608,0.5603,0.5601,0.5595,0.5593,0.5594,0.5578,0.5582,0.558,0.5579,0.5564,0.5563,0.5562,0.5564,0.5553,0.5553,0.5553,0.5553,0.5576,0.5577,0,0,0,0,0,0,0.5622,0.5618,0.5609,0.5608,0.5608,0.5595,0.5593,0.5592,0.5578,0.5575,0.5579,0.5578,0.5563,0.5562,0.5561,0.5575,0.5553,0.5553,0.5553,0.5576,0.5577,0.5577,0,0,0,0,0,0,0.5622,0.5621,0.561,0.5613,0.5611,0.5596,0.5595,0.5592,0.559,0.5576,0.5573,0.558,0.5563,0.5561,0.5565,0.5574,0.5553,0.5553,0.5575,0.5576,0.5577,0.5602,0,0,0,0,0,0,0.5623,0.5621,0.5625,0.5613,0.5611,0.5614,0.5595,0.5592,0.559,0.5587,0.5576,0.5573,0.5562,0.5565,0.5565,0.5573,0.5553,0.5574,0.5575,0.5577,0.56,0.5604,0.5607,0,0,0,0,0,0.5623,0.5633,0.5626,0.5625,0.5615,0.5614,0.5613,0.56,0.5591,0.5595,0.5586,0.5574,0.5573,0.5566,0.5565,0.5574,0.5573,0.5575,0.5577,0.5599,0.5603,0.5606,0,0,0,0,0,0,0.5646,0.5631,0.5623,0.5629,0.5623,0.561,0.5615,0.5604,0.5601,0.5599,0.5583,0.558,0.5586,0.558,0.5573,0.5585,0.5572,0.5573,0.5589,0.5592,0.5596,0.5597,0.5553,0,0,0,0,0,0.5652,0.5652,0.5639,0.5645,0.5643,0.563,0.5628,0.5619,0.5612,0.561,0.5601,0.5595,0.5594,0.5593,0.5591,0.56,0.5597,0.5605,0.5608,0.5611,0.5612,0.5617,0.5621,0.5582,0.5582,0.5582,0,0,0.5664,0.5656,0.5657,0.565,0.5644,0.5645,0.5627,0.5629,0.5629,0.561,0.5613,0.5607,0.5599,0.5606,0.5608,0.5601,0.5623,0.5613,0.5615,0.5615,0.5619,0.5623,0.5626,0.5584,0.5583,0.5583,0,0,0.5686,0.568,0.5685,0.568,0.5672,0.5663,0.5665,0.5653,0.5649,0.5652,0.5637,0.5638,0.5635,0.5631,0.5628,0.5651,0.5639,0.5651,0.5667,0.5672,0.5675,0.5678,0.5686,0.5689,0.5652,0.5652,0.5652,0,0.5702,0.5702,0.5689,0.5691,0.5689,0.5672,0.5678,0.5673,0.5665,0.5664,0.5656,0.5654,0.5648,0.5653,0.5659,0.5657,0.5659,0.5651,0.5676,0.5678,0.568,0.5688,0.5691,0.5653,0.5653,0.5653,0.5653,0,0.5722,0.5723,0.5728,0.5721,0.5719,0.5723,0.5711,0.5711,0.5703,0.5695,0.5699,0.5691,0.5687,0.5688,0.5679,0.5693,0.5689,0.5679,0.5664,0.5686,0.5693,0.5695,0.5655,0.5655,0.5654,0.5654,0,0,0.5757,0.5743,0.5745,0.5742,0.5733,0.5734,0.5737,0.5734,0.5735,0.573,0.5733,0.5733,0.5724,0.5721,0.5711,0.5716,0.5735,0.5706,0.5705,0.5711,0.575,0.5757,0.5761,0.5728,0.5728,0.5729,0.5751,0,0.5777,0.5782,0.5771,0.5779,0.578,0.5765,0.5768,0.5763,0.5757,0.5757,0.5749,0.5749,0.5737,0.5736,0.574,0.5732,0.5742,0.573,0.5731,0.5731,0.5732,0.5765,0.5772,0.5793,0.5753,0.5754,0.5754,0,0.58,0.5798,0.5806,0.5797,0.5797,0.58,0.5797,0.5797,0.5792,0.5787,0.5785,0.5774,0.5778,0.5765,0.577,0.5762,0.5762,0.5758,0.5759,0.5758,0.5743,0.5764,0.5799,0.5802,0.5758,0.5758,0.5758,0,0.5825,0.5823,0.5828,0.5826,0.5816,0.5819,0.5815,0.5809,0.5808,0.5806,0.5805,0.5803,0.5802,0.5801,0.579,0.5782,0.5797,0.5783,0.5793,0.5793,0.5796,0.5796,0.5831,0.5796,0.5796,0.5796,0.5796,0,0.5848,0.5854,0.5839,0.5842,0.5849,0.5836,0.5843,0.5838,0.5833,0.5835,0.5822,0.5824,0.581,0.5811,0.5804,0.5809,0.5809,0.5805,0.5803,0.5806,0.5806,0.5805,0.5803,0.5797,0.5797,0.5797,0.5797,0,0.5876,0.5867,0.5871,0.5862,0.586,0.5865,0.5857,0.586,0.5853,0.5856,0.5856,0.5845,0.5846,0.5836,0.5834,0.5829,0.5838,0.5833,0.584,0.5838,0.5849,0.5848,0.5884,0.5888,0.5852,0.5852,0.5852,0,0.5891,0.5895,0.5887,0.5888,0.5884,0.5885,0.5885,0.5874,0.5873,0.5868,0.5872,0.5872,0.5871,0.5873,0.5865,0.5864,0.5859,0.5872,0.5859,0.5862,0.5859,0.5859,0.5859,0.5874,0.5875,0.5875,0.5875,0,0.5919,0.5915,0.5914,0.5913,0.5913,0.5911,0.5908,0.5909,0.5897,0.5898,0.5899,0.5898,0.5897,0.5897,0.5895,0.5891,0.5882,0.588,0.5882,0.5885,0.5889,0.5887,0.5847,0.5879,0.5879,0.5878,0.5878,0.5878,0.5941,0.5945,0.5939,0.594,0.5937,0.5935,0.5937,0.5931,0.5932,0.593,0.5924,0.5926,0.5922,0.5918,0.5915,0.5917,0.5911,0.5914,0.5915,0.5915,0.5917,0.5889,0.5916,0.5916,0.5916,0.5916,0.5916,0,0.5969,0.5965,0.5965,0.5963,0.5963,0.5955,0.5952,0.5953,0.5955,0.5952,0.5951,0.5953,0.5953,0.5946,0.5946,0.5948,0.5944,0.5949,0.5948,0.5948,0.5923,0.5921,0.5952,0.5952,0.5952,0.5952,0.5952,0.5952,0.5983,0.5988,0.5983,0.5988,0.5984,0.5986,0.5985,0.5984,0.5981,0.5983,0.5984,0.5979,0.5975,0.5974,0.5975,0.5973,0.5973,0.5979,0.5976,0.5953,0.5949,0.5946,0.5944,0.598,0.598,0.6,0.6,0.6]},{"header":{"parameterUnit":"m.s-1","parameterCategory":1,"la1":30.2991,"la2":30.254,"lo1":-89.0895,"lo2":-89.0444,"dy":0.0017,"dx":0.0017,"nx":28,"ny":28,"refTime":"2025-01-11T03:00:00:Z","depth":0,"parameterNumber":3,"parameterNumberName":"V-component_of_WINDS"},"data":[0,0,0,0,0,0,0,0,0,0,0,0,0,0,0,0,0,0,0,0,0,0,0,0,0,0,0,0,0,0,0,0,0,0,0,0,0,0,0,0,0,0,0,0,0,0,0,0,0,0,0,0,0,0,0,0,0,0,-1.0409,-1.041,0,-1.0506,-1.0507,-1.0509,-1.0535,-1.0534,-1.0534,-1.0533,-1.0633,-1.0636,-1.0639,0,0,0,0,0,0,0,0,0,0,0,0,0,-1.0246,-1.0249,-1.0409,-1.041,-1.0411,-1.0506,-1.0508,-1.0509,-1.0535,-1.0534,-1.0534,-1.0533,-1.0632,-1.0636,-1.064,0,0,0,0,0,0,0,0,0,0,0,0,0,-1.0328,-1.025,-1.0409,-1.0436,-1.0439,-1.0506,-1.0508,-1.0509,-1.0535,-1.0534,-1.0534,-1.0533,-1.0631,-1.0636,-1.064,-1.0687,0,0,-1.0655,-1.0657,0,0,0,0,0,0,0,0,-1.0323,-1.0334,-1.0431,-1.0434,-1.0438,-1.0508,-1.0487,-1.0569,-1.0535,-1.0499,-1.0533,-1.0532,-1.0592,-1.06,-1.062,-1.0692,-1.0696,-1.0655,-1.0658,-1.066,-1.0662,0,0,0,0,0,0,0,-1.0317,-1.033,-1.0448,-1.0432,-1.0437,-1.0443,-1.0454,-1.0503,-1.0549,-1.0502,-1.0504,-1.0515,-1.0594,-1.0616,-1.0623,-1.0697,-1.0655,-1.0659,-1.0662,-1.0664,-1.0813,-1.0814,0,0,0,0,0,0,-1.0307,-1.0325,-1.0444,-1.045,-1.0377,-1.0447,-1.0459,-1.0486,-1.0549,-1.0557,-1.0516,-1.0516,-1.0608,-1.0617,-1.0626,-1.0686,-1.066,-1.0665,-1.0668,-1.0812,-1.0813,-1.0814,0,0,0,0,0,0,-1.0303,-1.0317,-1.0441,-1.0388,-1.0404,-1.0451,-1.0481,-1.0489,-1.051,-1.0559,-1.0568,-1.0529,-1.0607,-1.062,-1.0672,-1.0689,-1.0667,-1.0671,-1.081,-1.0812,-1.0814,-1.0804,0,0,0,0,0,0,-1.0299,-1.0316,-1.0334,-1.0388,-1.0407,-1.0484,-1.0482,-1.0491,-1.0518,-1.052,-1.0574,-1.0582,-1.0608,-1.0665,-1.0677,-1.0696,-1.0675,-1.0809,-1.0811,-1.0813,-1.0803,-1.0805,-1.0807,0,0,0,0,0,-1.0293,-1.0327,-1.0335,-1.0349,-1.0431,-1.0485,-1.0496,-1.0524,-1.052,-1.0538,-1.057,-1.058,-1.0685,-1.067,-1.0683,-1.0704,-1.0808,-1.0811,-1.0813,-1.0802,-1.0805,-1.0807,0,0,0,0,0,0,-1.0274,-1.0335,-1.0344,-1.0397,-1.0436,-1.0489,-1.0514,-1.0526,-1.0567,-1.0566,-1.06,-1.0612,-1.0662,-1.0689,-1.067,-1.0753,-1.0747,-1.0752,-1.0734,-1.0737,-1.0739,-1.0732,-1.0679,0,0,0,0,0,-1.0276,-1.0315,-1.0366,-1.0408,-1.0427,-1.0467,-1.0492,-1.0511,-1.0552,-1.0568,-1.0604,-1.0644,-1.0686,-1.0713,-1.0754,-1.0807,-1.0819,-1.0828,-1.083,-1.0831,-1.0836,-1.0866,-1.0871,-1.0822,-1.0822,-1.0822,0,0,-1.0281,-1.0319,-1.0341,-1.0406,-1.0438,-1.0478,-1.0481,-1.0523,-1.0553,-1.0575,-1.0627,-1.0654,-1.0701,-1.0753,-1.0778,-1.0777,-1.0852,-1.0834,-1.0835,-1.0839,-1.0869,-1.0874,-1.0878,-1.0824,-1.0823,-1.0823,0,0,-1.031,-1.0342,-1.0381,-1.0413,-1.0462,-1.0488,-1.0497,-1.0549,-1.0568,-1.0621,-1.0638,-1.0675,-1.0746,-1.0779,-1.0805,-1.0847,-1.0858,-1.0859,-1.087,-1.0899,-1.0903,-1.0906,-1.0922,-1.0927,-1.0863,-1.0863,-1.0863,0,-1.0309,-1.037,-1.0399,-1.0441,-1.0469,-1.0491,-1.053,-1.056,-1.062,-1.0639,-1.0636,-1.0727,-1.076,-1.0821,-1.0831,-1.0851,-1.0863,-1.0853,-1.09,-1.0904,-1.0907,-1.0922,-1.0928,-1.0863,-1.0863,-1.0863,-1.0863,0,-1.0367,-1.0409,-1.0435,-1.0492,-1.0523,-1.0563,-1.0599,-1.0626,-1.0643,-1.0669,-1.0722,-1.0763,-1.0813,-1.0829,-1.0845,-1.0892,-1.089,-1.0893,-1.0888,-1.0911,-1.0926,-1.0932,-1.0863,-1.0863,-1.0863,-1.0863,0,0,-1.0387,-1.046,-1.0469,-1.0496,-1.0551,-1.0584,-1.0625,-1.0674,-1.0698,-1.0738,-1.0774,-1.0834,-1.0838,-1.0867,-1.0887,-1.0913,-1.0944,-1.0913,-1.0914,-1.0918,-1.0999,-1.0997,-1.1003,-1.0952,-1.0953,-1.0954,-1.0996,0,-1.0424,-1.0498,-1.0526,-1.0588,-1.0627,-1.0648,-1.0685,-1.0723,-1.0749,-1.0786,-1.0815,-1.0857,-1.0858,-1.0876,-1.0903,-1.0934,-1.0961,-1.0932,-1.0986,-1.0987,-1.0974,-1.1011,-1.1008,-1.1046,-1.1001,-1.1002,-1.1003,0,-1.0476,-1.0517,-1.0582,-1.0633,-1.065,-1.0682,-1.073,-1.0765,-1.0809,-1.0826,-1.0859,-1.0878,-1.0922,-1.0914,-1.0976,-1.0956,-1.0979,-1.0998,-1.1001,-1.1007,-1.0997,-1.1019,-1.1059,-1.1064,-1.1012,-1.1012,-1.1011,0,-1.0484,-1.0556,-1.0604,-1.0626,-1.0687,-1.0709,-1.0735,-1.0778,-1.0805,-1.0847,-1.0866,-1.0912,-1.0937,-1.0972,-1.1003,-1.0994,-1.1063,-1.1057,-1.1079,-1.1078,-1.1092,-1.1091,-1.1137,-1.1107,-1.1107,-1.1107,-1.1107,0,-1.0522,-1.0561,-1.0609,-1.0639,-1.0684,-1.0715,-1.0759,-1.0787,-1.0825,-1.086,-1.0882,-1.0915,-1.0953,-1.0991,-1.1015,-1.1064,-1.1075,-1.109,-1.1096,-1.1089,-1.1087,-1.1105,-1.1104,-1.1108,-1.1108,-1.1108,-1.1107,0,-1.0539,-1.0573,-1.0627,-1.068,-1.0694,-1.0725,-1.077,-1.08,-1.0827,-1.0872,-1.0885,-1.0927,-1.0974,-1.1007,-1.1067,-1.1083,-1.1135,-1.1141,-1.112,-1.1124,-1.1144,-1.1142,-1.1204,-1.1214,-1.1176,-1.1176,-1.1176,0,-1.0562,-1.0592,-1.0648,-1.0674,-1.07,-1.0741,-1.0769,-1.0802,-1.0831,-1.0883,-1.0907,-1.0955,-1.0994,-1.1067,-1.1104,-1.115,-1.1157,-1.1176,-1.1164,-1.1156,-1.1158,-1.1156,-1.116,-1.1177,-1.1178,-1.1178,-1.1178,0,-1.0597,-1.0613,-1.0653,-1.0699,-1.0733,-1.0771,-1.0809,-1.0829,-1.0868,-1.09,-1.0947,-1.0978,-1.1039,-1.1087,-1.1136,-1.1164,-1.1178,-1.1181,-1.1189,-1.1182,-1.1169,-1.1177,-1.1125,-1.118,-1.118,-1.118,-1.1179,-1.1179,-1.0618,-1.0647,-1.0691,-1.0735,-1.0767,-1.0803,-1.0834,-1.0865,-1.0905,-1.0957,-1.0974,-1.1023,-1.1067,-1.1135,-1.1163,-1.1202,-1.1202,-1.1213,-1.1215,-1.1218,-1.1218,-1.1162,-1.1211,-1.1211,-1.1211,-1.1211,-1.1211,0,-1.0656,-1.0685,-1.0726,-1.0779,-1.0814,-1.0824,-1.0867,-1.0895,-1.0939,-1.0978,-1.1017,-1.1071,-1.1118,-1.1158,-1.1206,-1.1229,-1.1237,-1.1241,-1.124,-1.1246,-1.1215,-1.1204,-1.1234,-1.1234,-1.1234,-1.1234,-1.1234,-1.1234,-1.068,-1.0728,-1.0749,-1.0814,-1.0843,-1.0892,-1.0916,-1.0949,-1.098,-1.104,-1.1079,-1.1104,-1.1144,-1.1195,-1.1238,-1.1249,-1.1266,-1.1268,-1.1281,-1.1251,-1.1248,-1.1246,-1.1235,-1.1272,-1.1272,-1.1309,-1.1309,-1.1309]}]]